"2009-07-15 00:00:00",1063011,3.438,355.6,4.938,0.46,23.61,111.9029,29.79,30.77,10.76,0,111.6,13.05,30.64,317.6
"2009-07-15 00:00:30",1063012,2.465,0.982,6.32,0.556,23.71,111.9032,29.79,30.78,11.2,0,111.6,13.05,30.64,323.0
"2009-07-15 00:01:00",1063013,2.347,2.693,8.28,0.505,23.68,111.9037,29.79,30.81,11.28,0,111.6,13.05,30.65,324.7
"2009-07-15 00:01:30",1063014,3.061,355.4,4.605,0.545,23.77,111.9102,29.81,30.8,11.32,0,111.6,13.05,30.66,317.4
"2009-07-15 00:02:00",1063015,3.079,353.4,6.908,0.871,23.74,111.9155,29.82,30.83,11.05,0,111.6,13.05,30.68,315.4
"2009-07-15 00:02:30",1063016,3.983,345.5,2.689,0.2,23.54,111.9301,29.86,30.84,10.94,0,111.6,13.05,30.71,307.5
"2009-07-15 00:03:00",1063017,3.192,352.3,7.31,0.739,23.7,111.9359,29.87,30.84,10.94,0,111.6,13.05,30.73,314.3
"2009-07-15 00:03:30",1063018,2.945,357.2,4.344,0.486,23.77,111.9368,29.87,30.87,10.82,0,111.6,13.05,30.73,319.2
"2009-07-15 00:04:00",1063019,3.241,13.87,4.207,0.425,23.59,111.9368,29.87,30.88,11.09,0,111.6,13.05,30.73,335.9
"2009-07-15 00:04:30",1063020,3.15,4.703,7.251,0.771,23.66,111.9404,29.88,30.9,11.26,0,111.6,13.05,30.74,326.7
"2009-07-15 00:05:00",1063021,2.341,7.067,6.319,0.488,23.7,111.9505,29.91,30.91,11.26,0,111.6,13.05,30.77,329.1
"2009-07-15 00:05:30",1063022,3.431,13.76,5.313,0.617,23.55,111.9589,29.93,30.91,11.29,0,111.6,13.05,30.79,335.8
"2009-07-15 00:06:00",1063023,3.415,8.5,4.491,0.804,23.61,111.9673,29.95,30.93,11.27,0,111.6,13.05,30.81,330.5
"2009-07-15 00:06:30",1063024,3.259,18.22,3.149,0.496,23.64,111.9701,29.96,30.94,11.39,0,111.6,13.05,30.82,340.2
"2009-07-15 00:07:00",1063025,2.974,10.25,5.898,0.552,23.64,111.9704,29.96,30.96,11.61,0,111.6,13.05,30.82,332.2
"2009-07-15 00:07:30",1063026,2.554,13.7,6.904,0.702,23.7,111.9738,29.97,30.96,11.52,0,111.6,13.05,30.83,335.7
"2009-07-15 00:08:00",1063027,1.332,9.76,9.23,0.489,23.85,111.9805,29.99,30.99,11.79,0,111.6,13.05,30.84,331.8
"2009-07-15 00:08:30",1063028,1.536,8.46,12.43,0.596,23.8,111.9939,30.02,31,11.82,0,111.6,13.05,30.88,330.5
"2009-07-15 00:09:00",1063029,2.141,3.929,6.59,0.582,23.74,112.0041,30.05,31,11.63,0,111.6,13.05,30.90,325.9
"2009-07-15 00:09:30",1063030,2.091,13.3,6.242,0.683,23.62,112.0043,30.05,31.02,11.52,0,111.6,13.05,30.91,335.3
"2009-07-15 00:10:00",1063031,2.861,16.68,2.957,0.427,23.44,112.0108,30.07,31.04,11.36,0,111.6,13.05,30.92,338.7
"2009-07-15 00:10:30",1063032,2.198,15.95,4.199,0.542,23.63,112.0248,30.1,31.08,11.35,0,111.6,13.05,30.96,338.0
"2009-07-15 00:11:00",1063033,3.032,11.51,4.223,0.415,23.57,112.0365,30.13,31.08,11.33,0,111.6,13.05,30.99,333.5
"2009-07-15 00:11:30",1063034,2.825,17.89,3.286,0.406,23.63,112.0377,30.13,31.12,11.35,0,111.6,13.05,30.99,339.9
"2009-07-15 00:12:00",1063035,2.492,9.93,9.59,0.385,23.74,112.045,30.15,31.14,11.48,0,111.6,13.05,31.01,331.9
"2009-07-15 00:12:30",1063036,2.575,17.07,8.77,0.845,23.71,112.0592,30.19,31.15,11.53,0,111.6,13.05,31.05,339.1
"2009-07-15 00:13:00",1063037,1.381,2.846,16.7,0.593,23.97,112.0713,30.22,31.17,11.6,0,111.6,13.05,31.08,324.8
"2009-07-15 00:13:30",1063038,1.83,10.47,12.64,0.653,23.87,112.0713,30.22,31.19,11.53,0,111.6,13.04,31.08,332.5
"2009-07-15 00:14:00",1063039,3.231,3.534,12.58,0.839,23.76,112.0716,30.22,31.21,11.45,0,111.6,13.04,31.08,325.5
"2009-07-15 00:14:30",1063040,3.413,1.253,7.637,0.685,23.83,112.0786,30.24,31.22,11.44,0,111.6,13.04,31.10,323.3
"2009-07-15 00:15:00",1063041,4.275,353.8,2.779,0.53,23.89,112.0873,30.26,31.24,11.54,0,111.6,13.04,31.12,315.8
"2009-07-15 00:15:30",1063042,4.549,351.4,4.258,0.64,23.78,112.0993,30.29,31.26,11.34,0,111.6,13.05,31.15,313.4
"2009-07-15 00:16:00",1063043,5.56,347,2.64,0.225,23.61,112.1049,30.31,31.27,11.32,0,111.6,13.05,31.16,309.0
"2009-07-15 00:16:30",1063044,5.355,344.1,2.553,0.361,23.75,112.1049,30.31,31.29,11.43,0,111.6,13.05,31.16,306.1
"2009-07-15 00:17:00",1063045,2.901,354.5,21.02,1.379,24.06,112.1049,30.31,31.3,11.72,0,111.6,13.05,31.16,316.5
"2009-07-15 00:17:30",1063046,2.101,4.662,18.99,1.486,24.03,112.1049,30.31,31.31,11.71,0,111.6,13.05,31.16,326.7
"2009-07-15 00:18:00",1063047,2.138,15.12,10.84,0.995,23.87,112.101,30.3,31.32,11.72,0,111.6,13.05,31.15,337.1
"2009-07-15 00:18:30",1063048,2.947,19.91,4.176,0.478,23.71,112.0816,30.25,31.3,11.76,0,111.6,13.05,31.10,341.9
"2009-07-15 00:19:00",1063049,3.461,20.37,4.713,0.653,23.65,112.0716,30.22,31.27,11.72,0,111.6,13.05,31.08,342.4
"2009-07-15 00:19:30",1063050,4.277,23.06,4.772,0.481,23.74,112.0713,30.22,31.25,11.62,0,111.6,13.05,31.08,345.1
"2009-07-15 00:20:00",1063051,4.848,22.26,6.615,0.755,23.78,112.0713,30.22,31.23,11.55,0,111.6,13.05,31.08,344.3
"2009-07-15 00:20:30",1063052,6.409,34,8.43,0.38,23.71,112.0713,30.22,31.24,11.52,0,111.6,13.05,31.08,356.0
"2009-07-15 00:21:00",1063053,5.743,39.74,4.201,0.59,23.7,112.0713,30.22,31.24,11.56,0,111.6,13.05,31.08,1.7
"2009-07-15 00:21:30",1063054,3.748,51.73,7.085,0.683,23.38,112.0713,30.22,31.22,12.16,0,111.6,13.05,31.08,13.7
"2009-07-15 00:22:00",1063055,3.218,74.5,10.39,0.301,22.93,112.0713,30.22,31.23,14.06,0,111.6,13.05,31.08,36.5
"2009-07-15 00:22:30",1063056,4.437,88.8,7.532,0.567,22.95,112.0713,30.22,31.25,14.36,0,111.6,13.05,31.08,50.8
"2009-07-15 00:23:00",1063057,4.848,95.8,2.741,0.343,22.92,112.0587,30.19,31.22,14.31,0,111.6,13.05,31.05,57.8
"2009-07-15 00:23:30",1063058,4.862,95.6,6.563,0.339,22.82,112.0391,30.14,31.23,14.3,0,111.6,13.05,30.99,57.6
"2009-07-15 00:24:00",1063059,5.001,80.5,5.492,0.151,22.8,112.0234,30.1,31.2,14.34,0,111.6,13.05,30.95,42.5
"2009-07-15 00:24:30",1063060,5.286,94.7,5.515,0.326,23,111.999,30.03,31.17,14.24,0,111.6,13.05,30.89,56.7
"2009-07-15 00:25:00",1063061,5.18,84.7,6.27,0.299,23.03,111.9718,29.96,31.14,14.08,0,111.6,13.05,30.82,46.7
"2009-07-15 00:25:30",1063062,4.692,95.5,7.157,0.238,22.99,111.9435,29.89,31.1,14.19,0,111.6,13.05,30.75,57.5
"2009-07-15 00:26:00",1063063,4.696,86.5,3.519,0.302,23.01,111.9174,29.82,31.06,14.37,0,111.6,13.05,30.68,48.5
"2009-07-15 00:26:30",1063064,3.935,97.1,5.039,0.217,22.99,111.8961,29.77,30.99,14.45,0,111.6,13.05,30.63,59.1
"2009-07-15 00:27:00",1063065,3.791,100.4,5.356,0.313,22.9,111.8709,29.71,30.95,14.26,0,111.6,13.05,30.56,62.4
"2009-07-15 00:27:30",1063066,2.411,114.2,8.51,0.495,22.92,111.8415,29.63,30.89,14.32,0,111.6,13.05,30.48,76.2
"2009-07-15 00:28:00",1063067,2.188,97.6,8.16,0.28,22.92,111.825,29.59,30.83,14.39,0,111.6,13.05,30.44,59.6
"2009-07-15 00:28:30",1063068,2.556,79.83,7.767,0.223,22.88,111.804,29.53,30.8,14.37,0,111.6,13.05,30.39,41.8
"2009-07-15 00:29:00",1063069,3.157,78.32,7.566,0.157,22.97,111.7948,29.51,30.74,14.47,0,111.6,13.05,30.36,40.3
"2009-07-15 00:29:30",1063070,4.013,77.88,10.1,0.461,23.01,111.7737,29.46,30.68,14.67,0,111.6,13.04,30.31,39.9
"2009-07-15 00:30:00",1063071,6.96,77,9.37,1.027,23.04,111.7617,29.42,30.65,14.52,0,111.6,13.05,30.28,39.0
"2009-07-15 00:30:30",1063072,8.94,87.5,4.588,0.912,22.97,111.7295,29.34,30.56,14.18,0,111.6,13.04,30.20,49.5
"2009-07-15 00:31:00",1063073,8.73,84.3,6.802,1.082,23.11,111.7032,29.27,30.49,14.26,0,111.6,13.04,30.13,46.3
"2009-07-15 00:31:30",1063074,9.03,77.91,4.629,0.629,23.12,111.6755,29.2,30.43,14.3,0,111.6,13.04,30.06,39.9
"2009-07-15 00:32:00",1063075,9.33,80.9,3.079,0.677,23.08,111.6578,29.16,30.38,14.08,0,111.6,13.04,30.01,42.9
"2009-07-15 00:32:30",1063076,10.15,80.2,3.942,0.473,23.2,111.6381,29.11,30.31,14.13,0,111.6,13.05,29.96,42.2
"2009-07-15 00:33:00",1063077,10.23,83.3,2.924,0.59,23.19,111.6132,29.04,30.26,14.11,0,111.6,13.05,29.90,45.3
"2009-07-15 00:33:30",1063078,9.24,84,2.076,0.467,23.2,111.5892,28.98,30.22,14.08,0,111.6,13.05,29.83,46.0
"2009-07-15 00:34:00",1063079,10.04,79.94,2.634,0.515,23.13,111.5642,28.92,30.15,14.39,0,111.6,13.05,29.77,41.9
"2009-07-15 00:34:30",1063080,10.09,78.16,3.752,0.331,23.04,111.5393,28.85,30.09,15.04,0,111.6,13.05,29.70,40.2
"2009-07-15 00:35:00",1063081,11.32,89.9,6.684,0.943,22.28,111.5189,28.8,30.03,16.92,0,111.5,13.05,29.65,51.9
"2009-07-15 00:35:30",1063082,12.11,90.9,2.917,0.34,22.09,111.4879,28.72,29.97,18.93,0,111.5,13.05,29.57,52.9
"2009-07-15 00:36:00",1063083,12.66,94.4,2.809,0.283,21.93,111.4382,28.59,29.89,19.21,0,111.5,13.05,29.44,56.4
"2009-07-15 00:36:30",1063084,13.1,94.6,2.719,0.426,21.97,111.3882,28.46,29.81,19.12,0,111.5,13.05,29.31,56.6
"2009-07-15 00:37:00",1063085,13.39,98.5,0.93,0.465,22.08,111.3338,28.32,29.72,20.6,0,111.5,13.05,29.17,60.5
"2009-07-15 00:37:30",1063086,13.74,99.9,1.593,0.473,22.2,111.2697,28.16,29.6,20.86,0,111.5,13.05,29.01,61.9
"2009-07-15 00:38:00",1063087,13.48,101.1,1.847,0.265,22.18,111.206,27.99,29.49,21.16,0,111.5,13.06,28.84,63.1
"2009-07-15 00:38:30",1063088,13.26,98.3,2.221,0.358,22.16,111.1384,27.82,29.35,20.55,0,111.5,13.06,28.67,60.3
"2009-07-15 00:39:00",1063089,13.92,97.2,1.222,0.259,22.15,111.0756,27.66,29.2,18.84,0,111.5,13.06,28.51,59.2
"2009-07-15 00:39:30",1063090,13.92,99.7,3.251,0.54,22.06,111.0192,27.51,29.08,19.4,0,111.5,13.06,28.36,61.7
"2009-07-15 00:40:00",1063091,13.88,96.1,2.641,0.32,22.17,110.961,27.36,28.93,19.35,0,111.5,13.06,28.21,58.1
"2009-07-15 00:40:30",1063092,14.04,97.8,2.77,0.241,22,110.9008,27.21,28.79,19.17,0,111.5,13.06,28.06,59.8
"2009-07-15 00:41:00",1063093,14.43,98.7,1.815,0.438,21.81,110.8417,27.06,28.64,21.6,0,111.5,13.06,27.90,60.7
"2009-07-15 00:41:30",1063094,14.72,96.6,2.212,0.423,21.8,110.7842,26.91,28.49,21.9,0,111.5,13.06,27.76,58.6
"2009-07-15 00:42:00",1063095,14.72,93.4,1.799,0.435,21.92,110.7352,26.78,28.36,20.58,0,111.5,13.06,27.63,55.4
"2009-07-15 00:42:30",1063096,14.66,93.7,1.32,0.353,21.92,110.6909,26.67,28.23,20.16,0,111.5,13.06,27.52,55.7
"2009-07-15 00:43:00",1063097,14.84,94.9,1.414,0.505,21.9,110.6479,26.56,28.09,20.78,0,111.5,13.06,27.40,56.9
"2009-07-15 00:43:30",1063098,14.56,95.1,1.253,0.482,21.79,110.6037,26.45,27.97,21.53,0,111.5,13.06,27.29,57.1
"2009-07-15 00:44:00",1063099,14.78,95,1.38,0.243,21.89,110.5598,26.33,27.86,20.58,0,111.5,13.06,27.18,57.0
"2009-07-15 00:44:30",1063100,14.01,95.2,3.285,0.794,21.9,110.5222,26.24,27.75,20.9,0,111.4,13.06,27.08,57.2
"2009-07-15 00:45:00",1063101,14.37,93,1.128,0.196,22.17,110.4956,26.17,27.62,20,0,111.4,13.06,27.01,55.0
"2009-07-15 00:45:30",1063102,14.16,93.5,0.942,0.202,22.04,110.472,26.11,27.53,19.63,0,111.4,13.06,26.95,55.5
"2009-07-15 00:46:00",1063103,14.91,96.8,2.629,0.32,21.84,110.4566,26.07,27.46,21.66,0,111.4,13.06,26.91,58.8
"2009-07-15 00:46:30",1063104,14.8,96.9,1.519,0.289,21.74,110.4315,26,27.37,22.84,0,111.4,13.06,26.85,58.9
"2009-07-15 00:47:00",1063105,15.46,96.7,0.841,0.497,21.8,110.409,25.95,27.3,22.41,0,111.4,13.06,26.79,58.7
"2009-07-15 00:47:30",1063106,15.06,99.4,0.759,0.227,21.89,110.3919,25.9,27.24,21.91,0,111.4,13.06,26.74,61.4
"2009-07-15 00:48:00",1063107,14.04,103.8,3.247,0.635,21.85,110.3719,25.85,27.16,21.83,0,111.4,13.06,26.69,65.8
"2009-07-15 00:48:30",1063108,13.72,100.4,2.028,0.711,21.75,110.3487,25.79,27.08,24.04,0,111.4,13.06,26.63,62.4
"2009-07-15 00:49:00",1063109,14.32,100.9,1.658,0.382,21.67,110.333,25.75,27.02,24.36,0,111.4,13.06,26.59,62.9
"2009-07-15 00:49:30",1063110,15.17,102.8,1.572,0.282,21.63,110.3069,25.68,26.97,24.1,0,111.4,13.06,26.52,64.8
"2009-07-15 00:50:00",1063111,15.05,103.8,1.02,0.522,21.6,110.2849,25.63,26.89,24.04,0,111.4,13.06,26.47,65.8
"2009-07-15 00:50:30",1063112,14.82,103.8,1.454,0.44,21.57,110.2546,25.55,26.83,24.59,0,111.4,13.07,26.39,65.8
"2009-07-15 00:51:00",1063113,14.52,104.8,2.365,0.44,21.47,110.2279,25.48,26.75,25.25,0,111.4,13.07,26.32,66.8
"2009-07-15 00:51:30",1063114,13.07,103.9,2.494,0.744,21.52,110.2027,25.42,26.69,25.92,0,111.4,13.07,26.26,65.9
"2009-07-15 00:52:00",1063115,14.02,103.1,1.783,0.6,21.66,110.1823,25.36,26.63,25.1,0,111.4,13.07,26.20,65.1
"2009-07-15 00:52:30",1063116,14.68,101.4,1.02,0.372,21.77,110.1628,25.31,26.55,23.75,0,111.3,13.07,26.15,63.4
"2009-07-15 00:53:00",1063117,13.43,103.1,1.353,0.821,21.46,110.1464,25.27,26.5,25.35,0,111.4,13.07,26.11,65.1
"2009-07-15 00:53:30",1063118,14.15,103.2,2.852,0.669,21.65,110.1275,25.22,26.45,24.58,0,111.3,13.07,26.06,65.2
"2009-07-15 00:54:00",1063119,14,101.5,1.997,0.37,21.74,110.1091,25.17,26.4,24.64,0,111.3,13.07,26.01,63.5
"2009-07-15 00:54:30",1063120,14.01,100.8,1.5,0.304,21.73,110.0956,25.14,26.35,24.13,0,111.3,13.07,25.98,62.8
"2009-07-15 00:55:00",1063121,14.1,101,1.202,0.277,21.76,110.0852,25.11,26.29,24.09,0,111.3,13.07,25.95,63.0
"2009-07-15 00:55:30",1063122,13.77,103.7,1.206,0.326,21.52,110.0668,25.07,26.26,24.82,0,111.3,13.07,25.91,65.7
"2009-07-15 00:56:00",1063123,13.67,104.9,1.304,0.312,21.5,110.0618,25.05,26.22,24.72,0,111.3,13.07,25.89,66.9
"2009-07-15 00:56:30",1063124,13.81,103.4,1.238,0.493,21.4,110.0496,25.02,26.17,24.86,0,111.3,13.07,25.86,65.4
"2009-07-15 00:57:00",1063125,13.94,103.4,1.472,0.333,21.52,110.0345,24.98,26.15,24.69,0,111.3,13.07,25.82,65.4
"2009-07-15 00:57:30",1063126,13.78,104,2.108,0.39,21.5,110.0266,24.96,26.11,24.51,0,111.3,13.08,25.80,66.0
"2009-07-15 00:58:00",1063127,13.92,103.2,2.3,0.37,21.58,110.0143,24.93,26.07,24.48,0,111.3,13.08,25.77,65.2
"2009-07-15 00:58:30",1063128,13.36,103.1,2.473,0.554,21.51,110.0153,24.93,26.06,24.29,0,111.3,13.08,25.77,65.1
"2009-07-15 00:59:00",1063129,13.38,99,2.094,0.362,22.01,110.0166,24.94,26.02,22.72,0,111.3,13.08,25.78,61.0
"2009-07-15 00:59:30",1063130,14.05,100.3,1.483,0.546,21.81,110.0204,24.95,25.99,23.35,0,111.3,13.08,25.79,62.3
"2009-07-15 01:00:00",1063131,14.14,99.9,1.084,0.239,21.73,110.021,24.95,25.98,23.29,0,111.3,13.08,25.79,61.9
"2009-07-15 01:00:30",1063132,13.47,98.9,1.369,0.195,21.97,110.0219,24.95,25.97,22.9,0,111.3,13.08,25.79,60.9
"2009-07-15 01:01:00",1063133,13.58,100.5,1.871,0.348,21.79,110.0286,24.97,25.97,22.74,0,111.3,13.08,25.81,62.5
"2009-07-15 01:01:30",1063134,13.55,99.1,0.98,0.307,21.93,110.0307,24.97,25.97,22.79,0,111.3,13.08,25.81,61.1
"2009-07-15 01:02:00",1063135,13.74,98.9,0.979,0.156,22.06,110.044,25.01,25.97,22.08,0,111.3,13.08,25.85,60.9
"2009-07-15 01:02:30",1063136,13.9,99.9,0.976,0.139,22.06,110.0607,25.05,25.98,22,0,111.3,13.07,25.89,61.9
"2009-07-15 01:03:00",1063137,13.98,100.3,0.794,0.177,22.04,110.0645,25.06,25.99,22.18,0,111.3,13.07,25.90,62.3
"2009-07-15 01:03:30",1063138,14.16,98.2,1.196,0.287,22.16,110.0746,25.09,25.99,21.66,0,111.3,13.07,25.93,60.2
"2009-07-15 01:04:00",1063139,14.14,101,1.448,0.188,21.96,110.094,25.14,26,22.17,0,111.3,13.08,25.98,63.0
"2009-07-15 01:04:30",1063140,14.04,99.6,0.947,0.144,21.99,110.0976,25.15,26.05,22.22,0,111.3,13.08,25.98,61.6
"2009-07-15 01:05:00",1063141,14.31,100.5,1.015,0.307,21.89,110.1035,25.16,26.05,22.5,0,111.3,13.08,26.00,62.5
"2009-07-15 01:05:30",1063142,14.02,100.1,1.229,0.354,22.03,110.1057,25.17,26.09,22.61,0,111.2,13.08,26.01,62.1
"2009-07-15 01:06:00",1063143,14.19,102.5,1.524,0.198,21.83,110.1063,25.17,26.09,23.01,0,111.2,13.08,26.01,64.5
"2009-07-15 01:06:30",1063144,13.71,101.5,1.409,0.33,21.88,110.106,25.17,26.12,22.78,0,111.2,13.08,26.01,63.5
"2009-07-15 01:07:00",1063145,13.56,104,2.421,0.248,21.77,110.1052,25.16,26.12,23.11,0,111.2,13.08,26.00,66.0
"2009-07-15 01:07:30",1063146,13.77,101.5,1.202,0.238,21.86,110.0993,25.15,26.13,23.17,0,111.2,13.08,25.99,63.5
"2009-07-15 01:08:00",1063147,13.82,103.5,1.558,0.267,21.65,110.0982,25.15,26.13,23.65,0,111.2,13.09,25.99,65.5
"2009-07-15 01:08:30",1063148,13.77,104.7,1.277,0.363,21.77,110.0842,25.11,26.12,23.96,0,111.2,13.09,25.95,66.7
"2009-07-15 01:09:00",1063149,14.41,107.3,1.506,0.294,21.67,110.0796,25.1,26.11,23.99,0,111.2,13.09,25.94,69.3
"2009-07-15 01:09:30",1063150,14.03,108.2,1.521,0.293,21.76,110.0649,25.06,26.08,24.05,0,111.2,13.09,25.90,70.2
"2009-07-15 01:10:00",1063151,14.61,107.3,1.241,0.275,21.67,110.0527,25.03,26.06,24.46,0,111.2,13.09,25.87,69.3
"2009-07-15 01:10:30",1063152,15.2,108.2,1.213,0.356,21.58,110.0297,24.97,26.02,24.29,0,111.2,13.09,25.81,70.2
"2009-07-15 01:11:00",1063153,15.42,107.8,0.895,0.219,21.53,110.007,24.91,25.98,24.51,0,111.2,13.09,25.75,69.8
"2009-07-15 01:11:30",1063154,14.97,106.6,0.889,0.309,21.87,109.982,24.85,25.94,24.11,0,111.2,13.09,25.69,68.6
"2009-07-15 01:12:00",1063155,15.11,107.9,0.874,0.154,21.7,109.9582,24.79,25.91,24.19,0,111.2,13.09,25.63,69.9
"2009-07-15 01:12:30",1063156,15.13,108.9,0.537,0.054,21.66,109.939,24.74,25.85,24.38,0,111.2,13.09,25.58,70.9
"2009-07-15 01:13:00",1063157,15.13,107.3,0.569,0.267,21.76,109.9275,24.71,25.8,24.48,0,111.2,13.09,25.55,69.3
"2009-07-15 01:13:30",1063158,15.14,107.1,0.722,0.228,21.72,109.9091,24.66,25.77,24.39,0,111.2,13.09,25.50,69.1
"2009-07-15 01:14:00",1063159,14.91,106.9,0.903,0.351,21.83,109.8987,24.63,25.73,24.41,0,111.2,13.09,25.47,68.9
"2009-07-15 01:14:30",1063160,14.74,106.7,0.55,0.215,21.68,109.8951,24.62,25.7,24.2,0,111.2,13.1,25.46,68.7
"2009-07-15 01:15:00",1063161,14.91,107.3,1.121,0.149,21.64,109.8765,24.58,25.68,24.46,0,111.2,13.1,25.41,69.3
"2009-07-15 01:15:30",1063162,14.69,107.4,0.954,0.187,21.78,109.8709,24.56,25.64,24.45,0,111.2,13.1,25.40,69.4
"2009-07-15 01:16:00",1063163,14.67,108,1.226,0.272,21.89,109.8659,24.55,25.62,24.41,0,111.2,13.1,25.39,70.0
"2009-07-15 01:16:30",1063164,14.46,107.8,1.177,0.222,22.05,109.8653,24.55,25.61,24.12,0,111.2,13.1,25.39,69.8
"2009-07-15 01:17:00",1063165,14.59,108.9,0.872,0.149,21.89,109.8653,24.55,25.59,24.42,0,111.2,13.1,25.39,70.9
"2009-07-15 01:17:30",1063166,14.3,109.9,1.667,0.305,21.56,109.8659,24.55,25.57,25.17,0,111.2,13.1,25.39,71.9
"2009-07-15 01:18:00",1063167,14.46,108.8,1.227,0.248,21.66,109.8585,24.53,25.58,25.27,0,111.2,13.1,25.37,70.8
"2009-07-15 01:18:30",1063168,14.59,108.8,0.776,0.191,21.87,109.8499,24.51,25.55,24.46,0,111.2,13.1,25.35,70.8
"2009-07-15 01:19:00",1063169,13.97,111.3,1.01,0.296,21.64,109.849,24.51,25.54,25.4,0,111.2,13.1,25.34,73.3
"2009-07-15 01:19:30",1063170,13.42,112.3,1.217,0.557,21.49,109.8511,24.51,25.53,25.98,0,111.2,13.1,25.35,74.3
"2009-07-15 01:20:00",1063171,13.46,114.7,2.315,0.235,21.44,109.8419,24.49,25.52,26.56,0,111.2,13.1,25.33,76.7
"2009-07-15 01:20:30",1063172,13.88,114.7,1.929,0.291,21.63,109.8262,24.45,25.49,25.64,0,111.2,13.1,25.29,76.7
"2009-07-15 01:21:00",1063173,13.64,117.1,1.504,0.345,21.4,109.8184,24.43,25.47,26.65,0,111.2,13.09,25.27,79.1
"2009-07-15 01:21:30",1063174,12.89,115,1.763,0.302,21.34,109.7958,24.37,25.44,27.4,0,111.2,13.1,25.21,77.0
"2009-07-15 01:22:00",1063175,13.5,114.8,1.134,0.206,21.47,109.7851,24.34,25.41,26.98,0,111.2,13.1,25.18,76.8
"2009-07-15 01:22:30",1063176,13.69,113.9,1.106,0.194,21.71,109.7666,24.29,25.37,26.49,0,111.2,13.1,25.13,75.9
"2009-07-15 01:23:00",1063177,13.25,116.3,1.309,0.318,21.45,109.754,24.26,25.33,26.68,0,111.2,13.1,25.10,78.3
"2009-07-15 01:23:30",1063178,13.38,114.1,0.798,0.236,21.43,109.7353,24.21,25.31,27.31,0,111.2,13.1,25.05,76.1
"2009-07-15 01:24:00",1063179,13.62,113.5,0.696,0.176,21.75,109.73,24.2,25.28,26.51,0,111.1,13.1,25.04,75.5
"2009-07-15 01:24:30",1063180,13.45,113.3,0.722,0.153,21.61,109.7126,24.16,25.23,26.62,0,111.1,13.1,24.99,75.3
"2009-07-15 01:25:00",1063181,13.46,114.6,0.696,0.114,21.62,109.7036,24.13,25.2,26.88,0,111.2,13.1,24.97,76.6
"2009-07-15 01:25:30",1063182,13.44,114.4,0.73,0.23,21.64,109.7002,24.12,25.18,26.6,0,111.1,13.1,24.96,76.4
"2009-07-15 01:26:00",1063183,13.54,115.7,0.864,0.338,21.53,109.6991,24.12,25.17,26.88,0,111.1,13.11,24.96,77.7
"2009-07-15 01:26:30",1063184,13.74,115.4,0.942,0.158,21.66,109.6988,24.12,25.14,26.19,0,111.1,13.11,24.96,77.4
"2009-07-15 01:27:00",1063185,13.98,114.4,0.761,0.157,21.72,109.6994,24.12,25.14,26.18,0,111.1,13.11,24.96,76.4
"2009-07-15 01:27:30",1063186,14.34,113.5,0.698,0.206,21.81,109.7014,24.13,25.14,25.55,0,111.1,13.11,24.96,75.5
"2009-07-15 01:28:00",1063187,14.28,113.4,0.568,0.209,21.73,109.7117,24.15,25.13,25.52,0,111.1,13.11,24.99,75.4
"2009-07-15 01:28:30",1063188,14.32,113.9,0.514,0.177,21.63,109.734,24.21,25.14,25.79,0,111.1,13.11,25.05,75.9
"2009-07-15 01:29:00",1063189,14.16,113.9,1.209,0.237,21.77,109.7419,24.23,25.16,25.43,0,111.1,13.12,25.07,75.9
"2009-07-15 01:29:30",1063190,14.04,114.2,0.908,0.212,21.81,109.7646,24.29,25.18,25.27,0,111.1,13.12,25.13,76.2
"2009-07-15 01:30:00",1063191,14.34,115.2,0.858,0.131,21.53,109.7855,24.34,25.2,25.76,0,111.1,13.12,25.18,77.2
"2009-07-15 01:30:30",1063192,14,114.7,1.197,0.202,21.58,109.7956,24.37,25.22,25.82,0,111.1,13.12,25.21,76.7
"2009-07-15 01:31:00",1063193,14.14,114.9,1.029,0.342,21.7,109.8193,24.43,25.26,25.31,0,111.1,13.12,25.27,76.9
"2009-07-15 01:31:30",1063194,14.29,116.2,1.152,0.18,21.62,109.8284,24.45,25.29,25.49,0,111.1,13.12,25.29,78.2
"2009-07-15 01:32:00",1063195,14.48,118.1,1.507,0.326,21.35,109.8304,24.46,25.3,26.41,0,111.1,13.12,25.30,80.1
"2009-07-15 01:32:30",1063196,14.36,117.4,1.157,0.198,21.66,109.836,24.47,25.32,25.25,0,111.1,13.12,25.31,79.4
"2009-07-15 01:33:00",1063197,14.15,116.9,1.046,0.243,21.66,109.8414,24.49,25.34,25.27,0,111.1,13.12,25.32,78.9
"2009-07-15 01:33:30",1063198,14.2,115.1,0.572,0.118,21.65,109.8577,24.53,25.37,25.18,0,111.1,13.12,25.37,77.1
"2009-07-15 01:34:00",1063199,13.88,113.6,1.116,0.368,21.57,109.8628,24.54,25.38,25.34,0,111.1,13.12,25.38,75.6
"2009-07-15 01:34:30",1063200,14.23,115.3,1.279,0.396,21.47,109.8661,24.55,25.4,25.23,0,111.1,13.12,25.39,77.3
"2009-07-15 01:35:00",1063201,14.23,115.5,0.53,0.145,21.58,109.8673,24.55,25.41,25.44,0,111.1,13.12,25.39,77.5
"2009-07-15 01:35:30",1063202,14.32,117,0.813,0.135,21.49,109.8677,24.55,25.45,25.34,0,111.1,13.12,25.39,79.0
"2009-07-15 01:36:00",1063203,14.31,117,1.113,0.09,21.32,109.871,24.56,25.45,26.05,0,111.1,13.12,25.40,79.0
"2009-07-15 01:36:30",1063204,14.22,117,1.133,0.088,21.39,109.872,24.57,25.45,25.94,0,111.1,13.11,25.40,79.0
"2009-07-15 01:37:00",1063205,14.31,117.9,1.083,0.297,20.97,109.8669,24.55,25.46,26.37,0,111.1,13.11,25.39,79.9
"2009-07-15 01:37:30",1063206,14.59,117.9,0.475,0.26,21.24,109.8422,24.49,25.45,25.84,0,111.1,13.11,25.33,79.9
"2009-07-15 01:38:00",1063207,14.77,117.5,0.65,0.334,21.04,109.8366,24.47,25.43,26.01,0,111.1,13.11,25.31,79.5
"2009-07-15 01:38:30",1063208,15.29,118.1,0.79,0.18,21.13,109.8096,24.41,25.41,25.88,0,111.1,13.11,25.24,80.1
"2009-07-15 01:39:00",1063209,14.72,118,0.608,0.318,21.46,109.7925,24.36,25.4,25.54,0,111.1,13.11,25.20,80.0
"2009-07-15 01:39:30",1063210,15.01,118.5,0.569,0.125,21.4,109.7714,24.31,25.36,25.42,0,111.1,13.11,25.14,80.5
"2009-07-15 01:40:00",1063211,14.61,118.5,0.723,0.412,21.54,109.7658,24.29,25.33,25.54,0,111.1,13.11,25.13,80.5
"2009-07-15 01:40:30",1063212,14.07,119.3,0.575,0.186,21.67,109.7453,24.24,25.29,25.43,0,111.1,13.11,25.08,81.3
"2009-07-15 01:41:00",1063213,14.4,118.1,0.865,0.264,21.56,109.7375,24.22,25.27,25.59,0,111.1,13.11,25.06,80.1
"2009-07-15 01:41:30",1063214,13.86,118.5,0.721,0.299,21.91,109.7372,24.22,25.25,25.5,0,111.1,13.12,25.06,80.5
"2009-07-15 01:42:00",1063215,13.77,119,0.511,0.247,21.97,109.7372,24.22,25.24,25.38,0,111.1,13.12,25.06,81.0
"2009-07-15 01:42:30",1063216,13.66,118.5,0.678,0.225,21.88,109.7372,24.22,25.22,25.35,0,111.1,13.12,25.06,80.5
"2009-07-15 01:43:00",1063217,13.78,118,0.869,0.238,21.98,109.7372,24.22,25.21,25.15,0,111.1,13.12,25.06,80.0
"2009-07-15 01:43:30",1063218,13.66,116.6,2.27,0.35,21.81,109.7394,24.23,25.21,25.31,0,111.1,13.12,25.06,78.6
"2009-07-15 01:44:00",1063219,13.79,118.3,1.322,0.131,22.02,109.7487,24.25,25.23,24.95,0,111.1,13.13,25.09,80.3
"2009-07-15 01:44:30",1063220,13.59,119,0.525,0.128,21.95,109.7667,24.3,25.22,25.04,0,111.1,13.13,25.13,81.0
"2009-07-15 01:45:00",1063221,13.64,117.4,1.063,0.141,21.92,109.7709,24.31,25.24,24.84,0,111.1,13.13,25.14,79.4
"2009-07-15 01:45:30",1063222,13.5,116.7,0.822,0.169,21.92,109.7756,24.32,25.26,24.76,0,111.1,13.13,25.15,78.7
"2009-07-15 01:46:00",1063223,13.64,117.1,1.212,0.257,21.85,109.7879,24.35,25.29,24.79,0,111.1,13.13,25.19,79.1
"2009-07-15 01:46:30",1063224,13.81,117.3,0.641,0.285,21.79,109.8093,24.4,25.32,24.8,0,111.1,13.13,25.24,79.3
"2009-07-15 01:47:00",1063225,13.86,117.5,0.939,0.222,21.83,109.8141,24.42,25.31,24.8,0,111.1,13.13,25.25,79.5
"2009-07-15 01:47:30",1063226,13.93,115.9,0.84,0.128,21.8,109.8274,24.45,25.34,24.69,0,111.1,13.13,25.29,77.9